FW0810 Weather Reports


Display with metric or nautical units.
time (UTC)temp
F
wind
direction
speed
MPH
gust
MPH
rain 1hr
in
rain 24hr
in
rain mn
in
humidity
%
barometer
mb
20260903161903 93 143 0.0 1.0 0.00 0.00 0.00 33 1019.9
20260903161403 93 141 0.0 3.0 0.00 0.00 0.00 33 1019.9
20260903160918 93 139 0.0 3.0 0.00 0.00 0.00 33 1019.9
20260903160403 93 141 0.0 3.0 0.00 0.00 0.00 33 1020.0
20260903155901 93 108 1.0 6.0 0.00 0.00 0.00 34 1019.9
20260903155401 93 108 1.0 6.0 0.00 0.00 0.00 33 1019.9
20260903154902 94 103 1.0 5.0 0.00 0.00 0.00 33 1020.0
20260903154407 94 118 1.0 6.0 0.00 0.00 0.00 33 1020.0
20260903153855 94 106 0.0 6.0 0.00 0.00 0.00 32 1020.0
20260903152855 95 120 0.0 4.0 0.00 0.00 0.00 32 1020.0
20260903152352 95 310 0.0 4.0 0.00 0.00 0.00 32 1019.9
20260903151354 95 105 0.0 3.0 0.00 0.00 0.00 32 1019.9
20260903150853 95 110 0.0 3.0 0.00 0.00 0.00 32 1019.9
20260903150353 95 296 0.0 6.0 0.00 0.00 0.00 32 1020.0
20260903145854 95 283 1.0 7.0 0.00 0.00 0.00 31 1020.0
20260903144855 95 274 1.0 8.0 0.00 0.00 0.00 31 1020.0
20260903143850 95 287 0.0 5.0 0.00 0.00 0.00 31 1020.0
20260903143349 95 271 0.0 5.0 0.00 0.00 0.00 31 1019.9
20260903142849 95 129 0.0 2.0 0.00 0.00 0.00 30 1019.8
20260903142348 95 119 0.0 2.0 0.00 0.00 0.00 31 1019.9
20260903141849 95 338 0.0 3.0 0.00 0.00 0.00 31 1019.9
20260903141351 95 325 0.0 3.0 0.00 0.00 0.00 31 1020.0
20260903140349 94 285 0.0 5.0 0.00 0.00 0.00 31 1019.9
20260903135851 94 131 0.0 4.0 0.00 0.00 0.00 31 1020.0
20260903134349 95 309 0.0 1.0 0.00 0.00 0.00 32 1020.3
20260903133850 95 268 0.0 7.0 0.00 0.00 0.00 30 1020.4
20260903132851 95 60 0.0 3.0 0.00 0.00 0.00 30 1020.4
20260903130850 94 115 0.0 5.0 0.00 0.00 0.00 31 1020.3
20260903130349 94 320 0.0 5.0 0.00 0.00 0.00 31 1020.3
20260903125348 94 314 0.0 3.0 0.00 0.00 0.00 32 1020.4
20260903124849 94 349 1.0 6.0 0.00 0.00 0.00 32 1020.4
20260903124349 94 319 2.0 8.0 0.00 0.00 0.00 32 1020.4
20260903123349 94 248 0.0 4.0 0.00 0.00 0.00 34 1020.5
20260903122849 93 358 0.0 5.0 0.00 0.00 0.00 33 1020.5
20260903122346 93 4 0.0 5.0 0.00 0.00 0.00 34 1020.5
20260903121847 93 19 0.0 5.0 0.00 0.00 0.00 34 1020.6
20260903121350 93 295 0.0 3.0 0.00 0.00 0.00 34 1020.6
20260903115844 93 340 0.0 3.0 0.00 0.00 0.00 35 1020.7
20260903114828 93 42 0.0 2.0 0.00 0.00 0.00 36 1020.9
20260903114326 92 176 0.0 3.0 0.00 0.00 0.00 38 1021.0
20260903113839 92 328 0.0 3.0 0.00 0.00 0.00 36 1020.9
20260903113326 92 359 0.0 4.0 0.00 0.00 0.00 36 1021.0
20260903112824 92 133 0.0 4.0 0.00 0.00 0.00 37 1021.0
20260903112326 92 136 0.0 4.0 0.00 0.00 0.00 38 1021.1
20260903111825 92 59 0.0 3.0 0.00 0.00 0.00 41 1021.0
20260903111324 91 60 0.0 3.0 0.00 0.00 0.00 40 1021.1
20260903110824 91 345 0.0 4.0 0.00 0.00 0.00 40 1021.1
20260903110324 91 137 0.0 4.0 0.00 0.00 0.00 40 1021.3
20260903105824 90 188 0.0 2.0 0.00 0.00 0.00 43 1021.2
20260903105325 90 169 0.0 5.0 0.00 0.00 0.00 42 1021.4
20260903104824 90 324 0.0 5.0 0.00 0.00 0.00 43 1021.4
20260903104326 90 357 0.0 1.0 0.00 0.00 0.00 44 1021.4
20260903103824 90 357 0.0 5.0 0.00 0.00 0.00 44 1021.5
20260903102822 90 132 0.0 5.0 0.00 0.00 0.00 45 1021.5
20260903101312 89 223 0.0 3.0 0.00 0.00 0.00 46 1021.7
20260903100805 89 241 0.0 3.0 0.00 0.00 0.00 47 1021.7
20260903100258 89 188 0.0 1.0 0.00 0.00 0.00 48 1021.8
20260903095752 88 269 0.0 1.0 0.00 0.00 0.00 49 1021.9
20260903095246 88 303 0.0 4.0 0.00 0.00 0.00 48 1021.9
20260903094741 88 300 1.0 5.0 0.00 0.00 0.00 49 1022.0
20260903094236 88 321 0.0 5.0 0.00 0.00 0.00 51 1022.0
20260903093742 87 123 0.0 3.0 0.00 0.00 0.00 52 1022.0
20260903092716 87 180 1.0 5.0 0.00 0.00 0.00 55 1022.2
20260903092210 87 97 0.0 3.0 0.00 0.00 0.00 56 1022.2
20260903091213 86 68 0.0 3.0 0.00 0.00 0.00 56 1022.2
20260903090652 85 141 0.0 3.0 0.00 0.00 0.00 57 1022.1
20260903090159 85 141 0.0 3.0 0.00 0.00 0.00 57 1022.2
20260903085642 85 189 0.0 3.0 0.00 0.00 0.00 59 1022.2
20260903085133 85 193 0.0 4.0 0.00 0.00 0.00 60 1022.2
20260903084627 84 136 0.0 4.0 0.00 0.00 0.00 60 1022.2
20260903084122 84 167 0.0 2.0 0.00 0.00 0.00 60 1022.2
20260903083618 84 205 0.0 3.0 0.00 0.00 0.00 61 1022.2
20260903083119 83 269 0.0 3.0 0.00 0.00 0.00 62 1022.2
20260903082617 83 142 0.0 1.0 0.00 0.00 0.00 63 1022.1
20260903081612 82 135 0.0 3.0 0.00 0.00 0.00 64 1022.1
20260903080613 81 187 0.0 4.0 0.00 0.00 0.00 66 1022.1
20260903080117 80 140 0.0 4.0 0.00 0.00 0.00 65 1022.0
20260903075109 79 214 0.0 3.0 0.00 0.00 0.00 69 1022.0
20260903074609 78 261 0.0 3.0 0.00 0.00 0.00 70 1022.0
20260903074105 78 238 0.0 4.0 0.00 0.00 0.00 70 1022.0
20260903073102 77 255 0.0 5.0 0.00 0.00 0.00 71 1022.0
20260903072604 77 252 0.0 3.0 0.00 0.00 0.00 73 1022.0
20260903072103 76 264 0.0 3.0 0.00 0.00 0.00 73 1022.0
20260903071603 76 269 0.0 3.0 0.00 0.00 0.00 74 1021.9
20260903071105 75 281 0.0 3.0 0.00 0.00 0.00 75 1022.0
20260903070602 75 275 0.0 3.0 0.00 0.00 0.00 75 1022.0
20260903070111 74 279 0.0 4.0 0.00 0.00 0.00 78 1021.9
20260903065552 74 281 0.0 4.0 0.00 0.00 0.00 78 1022.0
20260903065045 73 281 0.0 1.0 0.00 0.00 0.00 79 1021.9
20260903064542 72 281 0.0 2.0 0.00 0.00 0.00 80 1021.9
20260903064037 72 282 0.0 2.0 0.00 0.00 0.00 81 1021.9
20260903063530 71 285 0.0 1.0 0.00 0.00 0.00 81 1021.9
20260903063024 70 288 0.0 3.0 0.00 0.00 0.00 83 1021.9
20260903062014 69 288 1.0 4.0 0.00 0.00 0.00 83 1021.9
20260903061005 68 275 0.0 4.0 0.00 0.00 0.00 84 1021.9
20260903060504 67 288 0.0 4.0 0.00 0.00 0.00 84 1022.0
20260903060005 67 278 0.0 4.0 0.00 0.00 0.00 84 1021.9
20260903055504 67 269 0.0 1.0 0.00 0.00 0.00 84 1021.9
20260903055005 66 272 0.0 1.0 0.00 0.00 0.00 85 1021.8
20260903054502 66 271 0.0 3.0 0.00 0.00 0.00 84 1021.8
20260903054005 66 271 0.0 3.0 0.00 0.00 0.00 84 1021.8
20260903053502 66 274 0.0 2.0 0.00 0.00 0.00 85 1021.8
20260903053002 65 274 0.0 2.0 0.00 0.00 0.00 86 1021.8
20260903052501 65 291 0.0 3.0 0.00 0.00 0.00 86 1021.8
20260903052001 65 276 0.0 3.0 0.00 0.00 0.00 86 1021.8
20260903051503 64 268 0.0 2.0 0.00 0.00 0.00 86 1021.7
20260903051001 64 266 0.0 1.0 0.00 0.00 0.00 86 1021.6
20260903050456 64 266 0.0 1.0 0.00 0.00 0.00 85 1021.6
20260903045457 64 268 0.0 3.0 0.00 0.00 0.00 85 1021.6
20260903045008 64 268 1.0 5.0 0.00 0.00 0.00 84 1021.6
20260903044459 64 271 1.0 5.0 0.00 0.00 0.00 84 1021.6
20260903043956 64 276 0.0 1.0 0.00 0.00 0.00 84 1021.6
20260903043455 65 272 0.0 0.0 0.00 0.00 0.00 84 1021.5
20260903042457 64 272 0.0 0.0 0.00 0.00 0.00 84 1021.5
20260903041454 65 271 0.0 3.0 0.00 0.00 0.00 83 1021.6
20260903040952 65 282 0.0 3.0 0.00 0.00 0.00 83 1021.6
20260903035954 65 262 0.0 0.0 0.00 0.00 0.00 82 1021.6
20260903035458 65 261 0.0 0.0 0.00 0.00 0.00 82 1021.7
20260903034953 65 261 0.0 0.0 0.00 0.00 0.00 82 1021.6
20260903034451 65 261 0.0 0.0 0.00 0.00 0.00 82 1021.5
20260903033953 65 261 0.0 0.0 0.00 0.00 0.00 82 1021.6
20260903033446 65 276 0.0 0.0 0.00 0.00 0.00 81 1021.6
20260903032941 65 276 0.0 0.0 0.00 0.00 0.00 81 1021.6
20260903032433 65 276 0.0 2.0 0.00 0.00 0.00 81 1021.6
20260903031929 65 279 0.0 2.0 0.00 0.00 0.00 81 1021.7
20260903030915 65 274 0.0 0.0 0.00 0.00 0.00 80 1021.6
20260903030422 65 274 0.0 2.0 0.00 0.00 0.00 80 1021.6
20260903025903 65 277 0.0 2.0 0.00 0.00 0.00 80 1021.6
20260903024851 66 270 1.0 3.0 0.00 0.00 0.00 79 1021.6
20260903024346 66 259 1.0 4.0 0.00 0.00 0.00 79 1021.6
20260903023839 66 276 0.0 4.0 0.00 0.00 0.00 78 1021.6
20260903023333 66 265 0.0 0.0 0.00 0.00 0.00 78 1021.6
20260903022827 66 265 0.0 0.0 0.00 0.00 0.00 78 1021.5
20260903022325 66 265 1.0 5.0 0.00 0.00 0.00 78 1021.7
20260903021815 66 265 1.0 5.0 0.00 0.00 0.00 77 1021.7
20260903020803 66 263 0.0 0.0 0.00 0.00 0.00 76 1021.8
20260903020257 66 262 0.0 0.0 0.00 0.00 0.00 76 1021.7
20260903015754 67 262 0.0 0.0 0.00 0.00 0.00 76 1021.8
20260903015255 67 262 0.0 0.0 0.00 0.00 0.00 75 1021.8
20260903014743 67 262 0.0 0.0 0.00 0.00 0.00 75 1021.7
20260903014237 67 263 0.0 0.0 0.00 0.00 0.00 75 1021.7
20260903013730 67 263 0.0 0.0 0.00 0.00 0.00 74 1021.7
20260903013221 67 263 0.0 2.0 0.00 0.00 0.00 74 1021.7
20260903012716 67 263 0.0 2.0 0.00 0.00 0.00 74 1021.7
20260903011703 67 270 0.0 3.0 0.00 0.00 0.00 73 1021.6
20260903011156 67 268 0.0 3.0 0.00 0.00 0.00 73 1021.6
20260903010655 68 274 0.0 6.0 0.00 0.00 0.00 73 1021.6
20260903010208 68 284 0.0 6.0 0.00 0.00 0.00 73 1021.7
20260903005656 68 285 0.0 1.0 0.00 0.00 0.00 73 1021.6
20260903005156 68 274 0.0 3.0 0.00 0.00 0.00 72 1021.8
20260903004653 68 276 0.0 3.0 0.00 0.00 0.00 71 1021.7
20260903004154 69 267 0.0 3.0 0.00 0.00 0.00 71 1021.7
20260903003651 69 213 0.0 0.0 0.00 0.00 0.00 71 1021.7
20260903003151 69 213 0.0 0.0 0.00 0.00 0.00 70 1021.7
20260903002147 70 291 0.0 0.0 0.00 0.00 0.00 68 1021.6
20260903001647 70 295 0.0 1.0 0.00 0.00 0.00 68 1021.7
20260903001149 70 295 0.0 1.0 0.00 0.00 0.00 68 1021.7
20260903000647 70 296 0.0 1.0 0.00 0.00 0.00 68 1021.7
20260903000147 71 296 0.0 1.0 0.00 0.00 0.00 67 1021.8
20260902235150 71 302 0.0 0.0 0.00 0.00 0.00 66 1021.8
20260902234152 72 303 0.0 0.0 0.00 0.00 0.00 65 1021.8
20260902233641 72 303 0.0 1.0 0.00 0.00 0.00 65 1021.8
20260902233139 72 303 0.0 1.0 0.00 0.00 0.00 65 1021.7
20260902232634 72 272 0.0 0.0 0.00 0.00 0.00 65 1021.7
20260902232128 72 273 0.0 0.0 0.00 0.00 0.00 64 1021.7
20260902231620 73 272 0.0 0.0 0.00 0.00 0.00 64 1021.6
20260902231114 74 275 0.0 0.0 0.00 0.00 0.00 62 1021.5
20260902230611 74 276 0.0 0.0 0.00 0.00 0.00 60 1021.5
20260902230105 75 276 0.0 0.0 0.00 0.00 0.00 60 1021.4
20260902225558 75 276 0.0 0.0 0.00 0.00 0.00 59 1021.5
20260902224546 75 276 0.0 0.0 0.00 0.00 0.00 59 1021.5
20260902224040 76 276 0.0 0.0 0.00 0.00 0.00 58 1021.5
20260902223026 76 276 0.0 1.0 0.00 0.00 0.00 58 1021.5
20260902222523 76 276 0.0 0.0 0.00 0.00 0.00 57 1021.5
20260902222021 76 276 0.0 0.0 0.00 0.00 0.00 57 1021.5
20260902221515 76 276 0.0 2.0 0.00 0.00 0.00 57 1021.5
20260902221015 77 276 0.0 3.0 0.00 0.00 0.00 56 1021.5
20260902220512 77 277 0.0 3.0 0.00 0.00 0.00 56 1021.5
20260902220015 77 324 0.0 1.0 0.00 0.00 0.00 56 1021.5
20260902215509 77 278 0.0 1.0 0.00 0.00 0.00 56 1021.6
20260902215007 77 276 0.0 1.0 0.00 0.00 0.00 56 1021.4
20260902214006 78 335 0.0 1.0 0.00 0.00 0.00 55 1021.4
20260902213518 78 338 0.0 1.0 0.00 0.00 0.00 55 1021.4
20260902212958 78 344 0.0 1.0 0.00 0.00 0.00 54 1021.4
20260902212501 78 281 0.0 1.0 0.00 0.00 0.00 54 1021.3
20260902211958 79 279 0.0 0.0 0.00 0.00 0.00 54 1021.3
20260902211453 79 279 0.0 0.0 0.00 0.00 0.00 53 1021.4
20260902211004 79 279 0.0 0.0 0.00 0.00 0.00 53 1021.4
20260902210452 79 279 0.0 0.0 0.00 0.00 0.00 52 1021.3
20260902205948 80 280 0.0 2.0 0.00 0.00 0.00 51 1021.2
20260902205446 80 280 0.0 5.0 0.00 0.00 0.00 51 1021.2
20260902204948 80 311 0.0 5.0 0.00 0.00 0.00 51 1021.2
20260902204446 80 298 0.0 3.0 0.00 0.00 0.00 51 1021.2
20260902203442 80 299 1.0 6.0 0.00 0.00 0.00 50 1021.2
20260902202940 80 0 1.0 9.0 0.00 0.00 0.00 50 1021.2
20260902202439 80 262 1.0 9.0 0.00 0.00 0.00 49 1021.2
20260902201932 80 281 1.0 8.0 0.00 0.00 0.00 50 1021.2
20260902201425 80 299 0.0 3.0 0.00 0.00 0.00 52 1021.2
20260902200931 80 285 0.0 3.0 0.00 0.00 0.00 51 1021.2
20260902200429 80 326 0.0 2.0 0.00 0.00 0.00 52 1021.2
20260902195927 80 316 0.0 3.0 0.00 0.00 0.00 53 1021.1
20260902195426 80 277 0.0 3.0 0.00 0.00 0.00 52 1021.1
20260902194925 80 273 0.0 2.0 0.00 0.00 0.00 52 1021.1
20260902194425 80 273 0.0 2.0 0.00 0.00 0.00 51 1021.2
20260902193929 81 272 0.0 0.0 0.00 0.00 0.00 51 1021.1
20260902193436 81 272 0.0 0.0 0.00 0.00 0.00 51 1021.1
20260902192417 81 276 0.0 1.0 0.00 0.00 0.00 51 1021.0
20260902191914 81 283 0.0 2.0 0.00 0.00 0.00 51 1021.0
20260902191412 81 281 0.0 2.0 0.00 0.00 0.00 51 1020.9
20260902190913 81 288 0.0 1.0 0.00 0.00 0.00 51 1020.8
20260902190412 81 290 0.0 0.0 0.00 0.00 0.00 52 1020.9
20260902185912 81 278 0.0 1.0 0.00 0.00 0.00 52 1020.8
20260902185411 81 278 0.0 1.0 0.00 0.00 0.00 52 1020.8
20260902184910 82 281 0.0 1.0 0.00 0.00 0.00 52 1020.8
20260902184407 82 282 0.0 0.0 0.00 0.00 0.00 52 1020.7
20260902183907 83 283 0.0 0.0 0.00 0.00 0.00 51 1020.6
20260902182400 84 293 0.0 0.0 0.00 0.00 0.00 50 1020.4
20260902181859 84 285 0.0 1.0 0.00 0.00 0.00 49 1020.3
20260902181358 85 283 0.0 1.0 0.00 0.00 0.00 48 1020.2
20260902180854 85 283 0.0 4.0 0.00 0.00 0.00 48 1020.2
20260902180406 85 283 0.0 4.0 0.00 0.00 0.00 47 1019.9
20260902175851 85 276 0.0 4.0 0.00 0.00 0.00 46 1019.8
20260902175349 86 276 0.0 0.0 0.00 0.00 0.00 46 1019.7
20260902174847 86 276 0.0 0.0 0.00 0.00 0.00 45 1019.6
20260902174347 87 276 0.0 1.0 0.00 0.00 0.00 44 1019.6
20260902172342 89 277 0.0 1.0 0.00 0.00 0.00 41 1019.6
20260902171838 90 277 0.0 1.0 0.00 0.00 0.00 40 1019.5
20260902171335 90 277 0.0 1.0 0.00 0.00 0.00 40 1019.5
20260902170836 91 277 0.0 3.0 0.00 0.00 0.00 40 1019.5
20260902165832 91 277 0.0 0.0 0.00 0.00 0.00 39 1019.4
20260902165333 91 278 1.0 7.0 0.00 0.00 0.00 39 1019.4
20260902163820 91 297 0.0 5.0 0.00 0.00 0.00 39 1019.6
20260902163320 91 255 0.0 5.0 0.00 0.00 0.00 39 1019.7
20260902162821 90 309 0.0 0.0 0.00 0.00 0.00 39 1019.7
20260902162323 90 300 0.0 0.0 0.00 0.00 0.00 38 1019.7